Date String (YYYY-MM-DD hh:mm:ss) UTC,Instrument flags,absolute air pressure of the measurement (hPa),sample flow rate (lpm),inlet stack bypass flow (lpm),air temperature of the measurement (°C),ambient temperature measured by the external sensor (°C),aerosol sample conditioner tube jacket temperature (°C),OPC LED temperature (°C),internal box temperature (°C),relative humidity of the measurement (%),span deviation,mass concentration of particles derived from Lorenz-Mie calculation of OPC scattering (μg/m³),mass concentration of particles derived from Lorenz-Mie calculation of OPC scattering (μg/m³),mass concentration of particles derived from Lorenz-Mie calculation of OPC scattering (μg/m³)
DateTimeUTC,F1_M11,P_M11,Q1_M11,Q2_M11,T1_M11,T2_M11,T3_M11,T4_M11,T5_M11,U1_M11,ZSPAN_M11,X0_M11,X2_M11,X1_M11
2023-09-27 03:00:00,SystemResetWarning,0833.4,5.00,000.00,028.2,026.8,000.0,036.6,030.0,15.3,0000.0,0017.17,0005.76,0004.38
2023-09-27 03:01:00,SystemResetWarning,0833.4,5.01,000.00,028.2,026.9,000.0,036.6,030.0,15.3,0000.0,0016.50,0005.74,0004.38
2023-09-27 03:02:00,SystemResetWarning,0833.4,5.00,000.00,028.2,027.1,000.0,036.6,030.1,15.3,0000.0,0016.01,0005.78,0004.38
2023-09-27 03:03:00,SystemResetWarning,0833.4,4.99,000.00,028.3,027.2,000.0,036.7,030.2,15.2,0000.0,0016.18,0005.80,0004.39
2023-09-27 03:04:00,SystemResetWarning,0833.4,4.99,000.00,028.3,027.3,000.0,036.7,030.2,15.2,0000.0,0015.94,0005.78,0004.38
2023-09-27 03:05:00,SystemResetWarning,0833.4,5.01,000.00,028.4,027.3,000.0,036.7,030.2,15.1,0000.0,0016.09,0005.74,0004.39
2023-09-27 03:06:00,SystemResetWarning,0833.5,5.00,000.00,028.4,026.7,000.0,036.7,030.2,15.1,0000.0,0017.08,0005.76,0004.40
2023-09-27 03:07:00,SystemResetWarning,0833.4,5.01,000.00,028.3,024.9,000.0,036.7,030.0,15.1,0000.0,0016.90,0005.78,0004.41
2023-09-27 03:08:00,SystemResetWarning,0833.4,5.00,000.00,028.3,024.5,000.0,036.6,029.9,15.1,0000.0,0017.68,0005.76,0004.40
2023-09-27 03:09:00,SystemResetWarning,0833.4,5.01,000.00,028.2,024.7,000.0,036.6,029.7,15.2,0000.0,0017.00,0005.75,0004.41
2023-09-27 03:10:00,SystemResetWarning,0833.4,5.01,000.00,028.1,025.0,000.0,036.6,029.7,15.3,0001.0,0016.23,0005.71,0004.40
2023-09-27 03:11:00,SystemResetWarning,0833.4,5.00,000.00,028.1,025.4,000.0,036.6,029.8,15.3,0000.0,0016.02,0005.69,0004.39
2023-09-27 03:12:00,SystemResetWarning,0833.4,5.01,000.00,028.1,025.7,000.0,036.6,029.8,15.3,0001.4,0016.23,0005.71,0004.39
2023-09-27 03:13:00,SystemResetWarning,0833.4,5.00,000.00,028.1,026.0,000.0,036.6,029.9,15.3,0000.0,0016.13,0005.66,0004.39
2023-09-27 03:14:00,SystemResetWarning,0833.5,5.00,000.00,028.1,026.3,000.0,036.6,029.9,15.3,0000.0,0016.02,0005.65,0004.39
2023-09-27 03:15:00,SystemResetWarning,0833.5,4.99,000.00,028.1,026.5,000.0,036.7,030.0,15.3,0000.0,0016.42,0005.66,0004.38
2023-09-27 03:16:00,SystemResetWarning,0833.5,4.99,000.00,028.2,026.7,000.0,036.7,030.0,15.3,0000.0,0016.42,0005.69,0004.37
2023-09-27 03:17:00,SystemResetWarning,0833.6,4.99,000.00,028.2,026.9,000.0,036.7,030.1,15.3,0000.0,0015.92,0005.71,0004.36
2023-09-27 03:18:00,SystemResetWarning,0833.6,5.00,000.00,028.2,027.0,000.0,036.7,030.1,15.3,0000.0,0016.55,0005.75,0004.36
2023-09-27 03:19:00,SystemResetWarning,0833.6,5.01,000.00,028.3,027.1,000.0,036.7,030.1,15.2,0000.0,0016.23,0005.78,0004.35
2023-09-27 03:20:00,SystemResetWarning,0833.6,5.00,000.00,028.3,027.2,000.0,036.7,030.2,15.2,0000.0,0016.15,0005.79,0004.35
2023-09-27 03:21:00,SystemResetWarning,0833.6,5.00,000.00,028.4,027.3,000.0,036.7,030.2,15.2,0000.0,0016.91,0005.84,0004.37
2023-09-27 03:22:00,SystemResetWarning,0833.7,5.00,000.00,028.4,027.4,000.0,036.8,030.3,15.3,0000.0,0017.81,0005.88,0004.37
2023-09-27 03:23:00,SystemResetWarning,0833.7,4.99,000.00,028.4,026.8,000.0,036.8,030.3,15.8,0000.0,0018.40,0005.92,0004.38
2023-09-27 03:24:00,SystemResetWarning,0833.7,5.01,000.00,028.4,025.1,000.0,036.7,030.1,15.7,0000.0,0018.18,0005.91,0004.37
2023-09-27 03:25:00,SystemResetWarning,0833.7,5.01,000.00,028.3,024.5,000.0,036.7,029.9,15.5,0000.0,0017.85,0005.92,0004.37
2023-09-27 03:26:00,SystemResetWarning,0833.7,5.00,000.00,028.2,024.7,000.0,036.7,029.7,15.4,0000.0,0017.90,0005.89,0004.37
2023-09-27 03:27:00,SystemResetWarning,0833.7,5.00,000.00,028.2,025.0,000.0,036.7,029.7,15.5,0000.1,0017.67,0005.88,0004.37
2023-09-27 03:28:00,SystemResetWarning,0833.7,4.99,000.00,028.1,025.4,000.0,036.7,029.8,15.5,0001.3,0018.09,0005.84,0004.37
2023-09-27 03:29:00,SystemResetWarning,0833.7,5.00,000.00,028.1,025.7,000.0,036.7,029.8,15.7,0000.6,0017.58,0005.78,0004.38
2023-09-27 03:30:00,SystemResetWarning,0833.7,5.00,000.00,028.1,026.0,000.0,036.7,029.9,15.8,0000.6,0016.51,0005.69,0004.38
2023-09-27 03:31:00,SystemResetWarning,0833.7,5.00,000.00,028.1,026.3,000.0,036.7,029.9,15.7,0000.6,0015.53,0005.66,0004.38
2023-09-27 03:32:00,SystemResetWarning,0833.6,5.00,000.00,028.2,026.5,000.0,036.7,030.0,15.6,0000.3,0015.69,0005.64,0004.38
2023-09-27 03:33:00,SystemResetWarning,0833.7,5.00,000.00,028.2,026.7,000.0,036.7,030.0,15.5,0000.4,0015.03,0005.64,0004.40
2023-09-27 03:34:00,SystemResetWarning,0833.7,5.00,000.00,028.2,026.9,000.0,036.7,030.1,15.6,0000.5,0015.16,0005.61,0004.40
2023-09-27 03:35:00,SystemResetWarning,0833.8,5.00,000.00,028.3,027.0,000.0,036.7,030.1,15.4,0000.6,0014.71,0005.56,0004.41
2023-09-27 03:36:00,SystemResetWarning,0833.8,5.00,000.00,028.3,027.1,000.0,036.7,030.1,15.4,0001.0,0015.30,0005.55,0004.40
2023-09-27 03:37:00,SystemResetWarning,0833.8,5.00,000.00,028.3,027.2,000.0,036.7,030.2,15.6,0000.5,0015.05,0005.58,0004.41
2023-09-27 03:38:00,SystemResetWarning,0833.8,4.99,000.00,028.4,027.3,000.0,036.8,030.2,15.7,0001.3,0014.98,0005.59,0004.41
2023-09-27 03:39:00,SystemResetWarning,0833.8,5.00,000.00,028.4,027.3,000.0,036.8,030.3,15.6,0001.1,0014.87,0005.57,0004.41
2023-09-27 03:40:00,SystemResetWarning,0833.8,5.00,000.00,028.4,027.4,000.0,036.8,030.3,15.6,0001.4,0014.73,0005.64,0004.41
2023-09-27 03:41:00,SystemResetWarning,0833.8,5.00,000.00,028.5,027.1,000.0,036.8,030.3,15.5,0001.7,0015.06,0005.67,0004.41
2023-09-27 03:42:00,SystemResetWarning,0833.8,5.00,000.00,028.4,025.3,000.0,036.8,030.1,15.5,0002.0,0015.99,0005.74,0004.42
2023-09-27 03:43:00,SystemResetWarning,0833.8,5.02,000.00,028.4,024.5,000.0,036.7,030.0,15.6,0002.8,0016.25,0005.76,0004.43
2023-09-27 03:44:00,SystemResetWarning,0833.8,4.99,000.00,028.3,024.6,000.0,036.7,029.8,15.6,0003.1,0015.99,0005.75,0004.42
2023-09-27 03:45:00,SystemResetWarning,0833.8,5.00,000.00,028.2,024.9,000.0,036.7,029.7,15.7,0003.4,0015.19,0005.77,0004.41
2023-09-27 03:46:00,SystemResetWarning,0833.8,5.01,000.00,028.1,025.3,000.0,036.7,029.8,15.8,0003.2,0015.93,0005.80,0004.42
2023-09-27 03:47:00,SystemResetWarning,0833.8,4.99,000.00,028.1,025.7,000.0,036.7,029.8,15.8,0003.2,0016.29,0005.79,0004.42
2023-09-27 03:48:00,SystemResetWarning,0833.8,4.99,000.00,028.1,026.0,000.0,036.7,029.9,15.8,0003.4,0016.52,0005.80,0004.44
2023-09-27 03:49:00,SystemResetWarning,0833.8,5.00,000.00,028.2,026.2,000.0,036.7,029.9,15.8,0003.7,0017.00,0005.88,0004.45
2023-09-27 03:50:00,SystemResetWarning,0833.8,5.00,000.00,028.2,026.5,000.0,036.7,030.0,15.8,0004.0,0016.54,0005.89,0004.47
2023-09-27 03:51:00,SystemResetWarning,0833.8,5.00,000.00,028.2,026.6,000.0,036.7,030.0,15.9,0003.9,0016.27,0005.85,0004.48
2023-09-27 03:52:00,SystemResetWarning,0833.8,4.99,000.00,028.2,026.8,000.0,036.7,030.1,15.9,0003.8,0016.73,0005.83,0004.48
2023-09-27 03:53:00,SystemResetWarning,0833.8,5.00,000.00,028.3,026.9,000.0,036.7,030.1,15.9,0004.2,0017.59,0005.82,0004.50
2023-09-27 03:54:00,SystemResetWarning,0833.8,5.00,000.00,028.3,027.0,000.0,036.7,030.1,15.9,0004.1,0017.66,0005.81,0004.50
2023-09-27 03:55:00,SystemResetWarning,0833.8,4.99,000.00,028.3,027.1,000.0,036.7,030.2,15.9,0004.4,0017.00,0005.84,0004.51
2023-09-27 03:56:00,SystemResetWarning,0833.8,5.00,000.00,028.4,027.2,000.0,036.8,030.2,15.8,0004.5,0017.29,0005.86,0004.53
2023-09-27 03:57:00,SystemResetWarning,0833.8,5.01,000.00,028.4,027.3,000.0,036.8,030.2,15.8,0004.7,0017.96,0005.92,0004.53
2023-09-27 03:58:00,SystemResetWarning,0833.8,5.01,000.00,028.4,027.3,000.0,036.8,030.3,15.8,0004.6,0017.07,0005.95,0004.53
2023-09-27 03:59:00,SystemResetWarning,0833.8,5.00,000.00,028.5,027.4,000.0,036.8,030.3,15.8,0004.5,0016.39,0005.93,0004.53
